$DATE,$TIME,DM0600B,DM0602B,DM0604B,DM0614B,DM0616B,DM0618B,DM0624B,DM0628B,DM0630B,DM0634B,DM0606B,DM0608B,DM0610B
11/02/94,00:00:00,0,0,0,0,32,19,49,63,99,0,35,28,23
11/02/94,00:05:00,0,0,0,0,30,17,46,63,99,0,27,30,35
11/02/94,00:10:00,0,0,0,0,28,16,43,63,99,0,31,39,29
11/02/94,00:15:00,79,53,73,60,23,13,36,61,97,0,31,23,25
11/02/94,00:20:00,42,33,41,54,23,14,37,61,93,0,21,16,16
11/02/94,00:25:00,51,5,44,41,37,21,56,61,93,0,16,12,12
11/02/94,00:30:00,29,3,39,30,43,24,63,61,93,0,13,11,10
11/02/94,00:35:00,42,19,33,47,40,22,56,61,93,0,12,9,9
11/02/94,00:40:00,40,22,54,43,38,22,59,61,93,0,10,8,8
11/02/94,00:45:00,55,23,56,41,44,25,65,61,93,0,9,13,8
11/02/94,00:50:00,50,23,47,39,39,22,64,61,93,0,9,18,8
11/02/94,00:55:00,58,25,40,33,42,24,63,62,93,0,8,13,7
11/02/94,01:00:00,51,2,49,46,39,22,57,61,93,0,8,10,7
11/02/94,01:05:00,57,21,54,53,30,17,45,60,93,0,7,9,7
11/02/94,01:10:00,42,22,37,46,28,16,51,60,93,0,7,7,7
11/02/94,01:15:00,48,20,54,42,30,17,43,60,93,0,7,7,7
11/02/94,01:20:00,49,19,33,39,29,17,44,62,93,0,7,6,8
11/02/94,01:25:00,44,24,41,39,26,15,40,61,93,0,7,15,7
11/02/94,01:30:00,56,37,50,42,27,15,41,61,93,0,7,17,7
11/02/94,01:35:00,35,37,47,42,23,13,38,61,93,0,7,13,7
11/02/94,01:40:00,56,24,46,37,29,17,46,61,93,0,7,10,7
11/02/94,01:45:00,45,23,35,28,37,21,56,61,93,0,7,8,6
11/02/94,01:50:00,42,34,54,43,36,21,55,61,93,0,6,7,6
11/02/94,01:55:00,47,31,42,41,34,19,54,61,93,0,6,7,7
11/02/94,02:00:00,47,33,38,38,36,21,56,61,93,0,6,6,6
11/02/94,02:05:00,37,40,44,39,41,24,63,61,94,0,6,6,6
11/02/94,02:10:00,65,51,50,47,27,25,51,60,93,0,6,6,6
11/02/94,02:15:00,54,38,46,54,0,0,0,60,93,0,6,6,6
11/02/94,02:20:00,66,38,53,51,0,0,0,60,93,0,7,6,6
11/02/94,02:25:00,69,36,60,49,0,0,0,60,93,0,7,6,7
11/02/94,02:30:00,54,29,44,40,0,0,0,61,93,0,7,6,7
11/02/94,02:35:00,63,34,58,48,0,0,0,61,93,0,7,6,7
11/02/94,02:40:00,39,25,45,41,0,0,0,61,93,0,7,5,7
11/02/94,02:45:00,68,33,60,49,0,0,0,61,93,0,7,5,7
11/02/94,02:50:00,38,34,56,52,0,0,0,61,93,0,7,5,7
11/02/94,02:55:00,50,21,58,43,0,0,0,61,93,0,7,8,7
11/02/94,03:00:00,,,,,,,,,,,,,
11/02/94,03:05:00,,,,,,,,,,,,,
11/02/94,03:10:00,,,,,,,,,,,,,
11/02/94,03:15:00,,,,,,,,,,,,,
11/02/94,03:20:00,,,,,,,,,,,,,
11/02/94,03:25:00,,,,,,,,,,,,,
11/02/94,03:30:00,,,,,,,,,,,,,
11/02/94,03:35:00,,,,,,,,,,,,,
11/02/94,03:40:00,,,,,,,,,,,,,
11/02/94,03:45:00,,,,,,,,,,,,,
11/02/94,03:50:00,,,,,,,,,,,,,
11/02/94,03:55:00,,,,,,,,,,,,,
11/02/94,04:00:00,,,,,,,,,,,,,
11/02/94,04:05:00,,,,,,,,,,,,,
11/02/94,04:10:00,,,,,,,,,,,,,
11/02/94,04:15:00,,,,,,,,,,,,,
11/02/94,04:20:00,48,29,52,41,0,0,0,61,93,0,7,13,6
11/02/94,04:25:00,29,35,43,50,0,0,0,61,93,0,6,10,6
11/02/94,04:30:00,42,34,40,41,0,0,0,62,93,0,7,9,6
11/02/94,04:35:00,47,28,44,50,0,0,0,61,93,0,7,7,7
11/02/94,04:40:00,53,36,45,40,0,0,0,61,93,0,7,7,7
11/02/94,04:45:00,44,24,39,41,0,0,0,61,93,0,7,7,7
11/02/94,04:50:00,38,18,33,41,0,0,0,61,93,0,7,16,6
11/02/94,04:55:00,47,38,44,52,0,0,0,61,93,0,7,16,6
11/02/94,05:00:00,46,44,42,43,0,0,0,61,93,0,7,12,6
11/02/94,05:05:00,52,31,42,45,0,0,0,61,95,0,7,9,6
11/02/94,05:10:00,40,31,43,43,0,0,0,61,95,0,7,8,6
11/02/94,05:15:00,41,40,51,48,0,0,0,61,95,0,7,7,6
11/02/94,05:20:00,58,38,48,35,0,0,0,61,95,0,7,7,6
11/02/94,05:25:00,44,30,37,45,0,0,0,61,95,0,7,7,6
11/02/94,05:30:00,49,23,37,38,0,0,0,61,95,0,7,17,6
11/02/94,05:35:00,47,32,43,42,0,0,0,61,95,0,8,15,6
11/02/94,05:40:00,45,43,51,46,0,0,0,61,95,0,7,12,7
11/02/94,05:45:00,46,39,42,44,0,0,0,61,95,0,7,9,7
11/02/94,05:50:00,46,36,46,39,0,0,0,64,95,0,6,8,7
11/02/94,05:55:00,52,33,42,47,0,0,0,64,95,0,7,7,7
11/02/94,06:00:00,45,44,47,43,0,0,0,64,95,0,7,12,6
11/02/94,06:05:00,53,26,40,45,0,0,0,64,95,0,7,18,6
11/02/94,06:10:00,53,41,44,43,0,0,0,64,95,0,6,13,6
11/02/94,06:15:00,24,32,48,48,0,0,0,64,95,0,6,10,6
11/02/94,06:20:00,52,28,44,50,0,0,0,64,95,0,6,8,6
11/02/94,06:25:00,34,38,38,44,0,0,0,64,95,0,6,7,6
11/02/94,06:30:00,37,32,38,37,0,0,0,64,95,0,7,11,6
11/02/94,06:35:00,45,34,57,35,0,0,0,64,95,0,6,19,6
11/02/94,06:40:00,46,30,52,52,0,0,0,64,95,0,7,14,6
11/02/94,06:45:00,53,46,51,46,0,0,0,64,95,0,7,11,7
11/02/94,06:50:00,52,28,51,45,0,0,0,64,95,0,7,9,7
11/02/94,06:55:00,59,39,52,45,0,0,0,64,95,0,7,8,7
11/02/94,07:00:00,40,36,45,49,0,0,0,63,95,0,7,7,7
11/02/94,07:05:00,47,31,42,43,0,0,0,63,86,0,7,9,6
11/02/94,07:10:00,42,30,40,45,0,0,0,64,93,0,7,19,6
11/02/94,07:15:00,37,21,43,43,0,0,0,63,93,0,6,14,6
11/02/94,07:20:00,46,36,42,38,0,0,0,63,93,0,7,10,6
11/02/94,07:25:00,52,27,44,48,0,0,0,63,93,0,6,8,6
11/02/94,07:30:00,42,42,40,53,0,0,0,63,93,0,6,7,6
11/02/94,07:35:00,51,21,63,47,0,0,0,64,93,0,6,8,6
11/02/94,07:40:00,49,40,55,44,0,0,0,63,93,0,7,18,6
11/02/94,07:45:00,43,26,40,42,0,0,0,63,93,0,7,16,6
11/02/94,07:50:00,40,23,52,48,0,0,0,63,93,0,7,12,7
11/02/94,07:55:00,64,28,44,37,0,0,0,64,101,0,7,10,7
11/02/94,08:00:00,54,20,46,37,0,0,0,64,93,0,6,8,7
11/02/94,08:05:00,50,28,44,38,0,0,0,64,93,0,6,7,6
11/02/94,08:10:00,51,31,29,41,0,0,0,64,93,0,7,9,6
11/02/94,08:15:00,40,27,52,44,0,0,0,64,93,0,6,18,6
11/02/94,08:20:00,50,30,43,51,0,0,0,64,93,0,6,15,6
11/02/94,08:25:00,43,24,33,36,0,0,0,64,93,0,7,11,6
11/02/94,08:30:00,51,34,40,37,0,0,0,64,93,0,6,9,6
11/02/94,08:35:00,47,18,39,26,0,0,0,64,93,0,6,8,6
11/02/94,08:40:00,45,41,37,42,0,0,0,64,93,0,6,9,6
11/02/94,08:45:00,40,21,40,41,0,0,0,63,93,0,7,19,6
11/02/94,08:50:00,44,36,48,47,0,0,0,63,93,0,7,15,6
11/02/94,08:55:00,41,32,31,41,0,0,0,64,93,0,7,11,7
11/02/94,09:00:00,69,23,40,37,0,0,0,63,93,0,7,8,7
11/02/94,09:05:00,41,23,39,42,0,0,0,64,93,0,6,7,6
11/02/94,09:10:00,58,25,31,58,0,0,0,64,93,0,6,11,6
11/02/94,09:15:00,34,15,34,44,0,0,0,64,93,0,12,20,6
11/02/94,09:20:00,46,11,55,45,0,0,0,63,93,0,15,15,6
11/02/94,09:25:00,51,23,45,36,0,0,0,63,93,0,13,11,6
11/02/94,09:30:00,51,20,47,40,0,0,0,64,93,0,10,9,6
11/02/94,09:35:00,42,44,31,39,0,0,0,64,93,0,9,8,6
11/02/94,09:40:00,44,42,50,34,0,0,0,64,93,0,8,7,6
11/02/94,09:45:00,46,30,38,31,0,0,0,64,97,0,8,11,6
11/02/94,09:50:00,48,35,40,42,0,0,0,64,97,0,7,19,6
11/02/94,09:55:00,35,39,36,31,0,0,0,64,97,0,8,14,6
11/02/94,10:00:00,60,21,53,44,0,0,0,64,97,0,7,11,7
11/02/94,10:05:00,55,6,44,40,0,0,0,64,97,0,6,9,7
11/02/94,10:10:00,45,19,46,39,0,0,0,64,97,0,7,8,7
11/02/94,10:15:00,57,19,45,41,0,0,0,64,97,0,6,13,7
11/02/94,10:20:00,55,20,48,37,0,0,0,64,97,0,6,19,6
11/02/94,10:25:00,47,40,33,41,0,0,0,64,97,0,7,13,6
11/02/94,10:30:00,51,29,42,35,0,0,0,64,97,0,7,10,6
11/02/94,10:35:00,46,21,39,35,0,0,0,64,85,0,7,9,6
11/02/94,10:40:00,38,28,45,49,0,0,0,64,84,0,7,7,6
11/02/94,10:45:00,53,28,46,41,0,0,0,64,84,0,7,6,6
11/02/94,10:50:00,47,35,30,47,0,0,0,64,84,0,7,6,6
11/02/94,10:55:00,49,35,43,39,0,0,0,64,84,0,6,5,6
11/02/94,11:00:00,57,39,38,44,0,0,0,64,84,0,6,5,6
11/02/94,11:05:00,55,17,49,41,0,0,0,65,84,0,6,15,7
11/02/94,11:10:00,43,21,33,41,0,0,0,64,84,0,7,17,7
11/02/94,11:15:00,54,32,52,42,0,0,0,64,84,0,6,12,7
11/02/94,11:20:00,40,26,48,35,0,0,0,64,85,0,6,10,7
11/02/94,11:25:00,49,41,48,28,0,0,0,64,84,0,7,8,7
11/02/94,11:30:00,58,24,48,41,0,0,0,64,84,0,7,7,6
11/02/94,11:35:00,39,27,45,42,0,0,0,64,84,0,7,6,6
11/02/94,11:40:00,44,26,50,42,0,0,0,64,84,0,7,6,6
11/02/94,11:45:00,54,20,48,34,0,0,0,64,84,0,6,8,6
11/02/94,11:50:00,55,22,44,37,0,0,0,64,84,0,6,18,6
11/02/94,11:55:00,48,32,35,45,0,0,0,64,84,0,6,15,6
11/02/94,12:00:00,47,23,35,40,0,0,0,64,84,0,6,11,6
11/02/94,12:05:00,54,52,47,41,0,0,0,64,104,0,6,9,7
11/02/94,12:10:00,47,32,39,40,0,0,0,64,84,0,6,8,7
11/02/94,12:15:00,47,26,49,33,0,0,0,64,87,0,6,7,7
11/02/94,12:20:00,49,24,40,36,0,0,0,64,87,0,6,6,7
11/02/94,12:25:00,32,41,43,31,0,0,0,64,87,0,6,6,7
11/02/94,12:30:00,48,38,32,38,0,0,0,64,87,0,6,6,7
11/02/94,12:35:00,59,32,54,39,0,0,0,64,87,0,7,17,7
11/02/94,12:40:00,27,28,37,39,0,0,0,64,92,0,7,16,7
11/02/94,12:45:00,61,28,38,34,0,0,0,64,92,0,7,12,7
11/02/94,12:50:00,44,15,45,45,0,0,0,64,92,0,7,10,6
11/02/94,12:55:00,41,28,47,40,0,0,0,64,92,0,7,8,6
11/02/94,13:00:00,47,43,44,42,0,0,0,64,92,0,6,7,6
11/02/94,13:05:00,52,21,45,41,0,0,0,64,92,0,6,7,6
11/02/94,13:10:00,45,44,42,46,0,0,0,64,92,0,6,7,6
11/02/94,13:15:00,33,27,54,49,0,0,0,64,92,0,6,17,7
11/02/94,13:20:00,48,43,39,42,0,0,0,64,88,0,6,15,7
11/02/94,13:25:00,47,42,32,33,0,0,0,64,88,0,6,12,7
11/02/94,13:30:00,41,40,39,49,0,0,0,64,88,0,7,9,7
11/02/94,13:35:00,29,23,37,39,0,0,0,64,86,0,7,8,7
11/02/94,13:40:00,35,23,41,44,0,0,0,64,86,0,7,7,6
11/02/94,13:45:00,48,36,39,49,0,0,0,63,86,0,7,7,6
11/02/94,13:50:00,45,34,40,44,0,0,0,63,84,0,7,6,6
11/02/94,13:55:00,40,34,45,43,0,0,0,63,84,0,7,6,6
11/02/94,14:00:00,52,32,37,30,0,0,0,64,95,0,7,6,7
11/02/94,14:05:00,42,36,43,43,0,0,0,64,95,0,7,6,6
11/02/94,14:10:00,32,36,59,40,0,0,0,64,95,0,7,6,6
11/02/94,14:15:00,46,35,64,40,0,0,0,64,95,0,7,7,6
11/02/94,14:20:00,47,31,54,41,0,0,0,64,87,0,6,14,7
11/02/94,14:25:00,44,27,55,50,0,0,0,63,86,0,7,17,7
11/02/94,14:30:00,39,28,60,52,0,0,0,64,86,0,6,12,7
11/02/94,14:35:00,67,38,47,39,0,0,0,64,95,0,7,9,7
11/02/94,14:40:00,42,25,50,35,0,0,0,64,95,0,6,8,6
11/02/94,14:45:00,37,54,47,43,0,0,0,64,95,0,7,7,7
11/02/94,14:50:00,49,33,38,38,0,0,0,64,95,0,7,11,6
11/02/94,14:55:00,51,17,39,43,0,0,0,64,101,0,6,19,6
11/02/94,15:00:00,52,31,34,44,0,0,0,64,89,0,6,14,6
11/02/94,15:05:00,41,29,43,45,0,0,0,64,88,0,6,11,6
11/02/94,15:10:00,54,33,36,38,0,0,0,64,89,0,6,9,6
11/02/94,15:15:00,45,40,38,47,0,0,0,64,99,0,6,7,6
11/02/94,15:20:00,34,27,53,40,0,0,0,64,99,0,6,7,6
11/02/94,15:25:00,47,35,54,42,0,0,0,64,99,0,8,14,7
11/02/94,15:30:00,52,17,37,46,0,0,0,64,99,0,16,17,7
11/02/94,15:35:00,40,41,44,40,0,0,0,64,99,0,14,13,7
11/02/94,15:40:00,45,34,33,32,0,0,0,64,99,0,12,10,7
11/02/94,15:45:00,69,11,48,46,0,0,0,64,97,0,10,8,6
11/02/94,15:50:00,48,48,34,50,0,0,0,64,97,0,9,7,6
11/02/94,15:55:00,56,37,43,56,0,0,0,64,97,0,8,10,6
11/02/94,16:00:00,37,26,50,43,0,0,0,64,97,0,8,19,6
11/02/94,16:05:00,37,27,45,41,0,0,0,64,89,0,7,15,6
11/02/94,16:10:00,68,27,38,41,0,0,0,64,89,0,7,11,6
11/02/94,16:15:00,42,44,48,39,0,0,0,64,78,0,7,9,6
11/02/94,16:20:00,41,45,50,42,0,0,0,64,78,0,6,7,6
11/02/94,16:25:00,36,12,35,37,0,0,0,64,78,0,7,7,6
11/02/94,16:30:00,35,28,37,34,0,0,0,64,93,0,7,6,7
11/02/94,16:35:00,45,40,42,37,0,0,0,64,87,0,7,6,7
11/02/94,16:40:00,63,34,31,24,0,0,0,64,87,0,7,8,7
11/02/94,16:45:00,40,17,45,40,0,0,0,64,87,0,7,18,6
11/02/94,16:50:00,39,31,49,46,0,0,0,64,87,0,7,14,6
11/02/94,16:55:00,50,39,32,36,0,0,0,64,78,0,7,11,6
11/02/94,17:00:00,55,32,51,35,0,0,0,64,78,0,7,9,6
11/02/94,17:05:00,53,19,37,38,0,0,0,64,78,0,7,8,6
11/02/94,17:10:00,41,33,52,42,0,0,0,64,78,0,7,7,6
11/02/94,17:15:00,39,24,42,43,0,0,0,64,78,0,7,6,6
11/02/94,17:20:00,39,32,57,36,0,0,0,64,78,0,7,6,6
11/02/94,17:25:00,41,34,48,36,0,0,0,64,78,0,7,6,6
11/02/94,17:30:00,42,23,36,37,0,0,0,64,78,0,7,5,6
11/02/94,17:35:00,39,10,45,44,0,0,0,64,78,0,7,5,7
11/02/94,17:40:00,22,24,45,46,0,0,0,64,78,0,7,5,7
11/02/94,17:45:00,48,24,36,33,0,0,0,64,78,0,7,6,7
11/02/94,17:50:00,38,49,44,35,0,0,0,63,78,0,7,6,7
11/02/94,17:55:00,45,39,39,48,0,0,0,64,78,0,7,6,6
11/02/94,18:00:00,42,29,42,44,0,0,0,64,95,0,7,5,6
11/02/94,18:05:00,54,19,54,39,0,0,0,63,78,0,7,11,6
11/02/94,18:10:00,46,25,47,44,0,0,0,64,78,0,7,17,6
11/02/94,18:15:00,37,24,50,41,0,0,0,64,87,0,6,13,6
11/02/94,18:20:00,51,33,47,41,0,0,0,64,87,0,7,10,6
11/02/94,18:25:00,48,25,44,31,0,0,0,64,87,0,6,9,6
11/02/94,18:30:00,49,21,43,54,0,0,0,64,95,0,7,8,6
11/02/94,18:35:00,42,16,31,52,0,0,0,64,95,0,6,8,6
11/02/94,18:40:00,52,19,33,39,0,0,0,64,95,0,6,18,7
11/02/94,18:45:00,56,18,50,38,0,0,0,64,95,0,7,16,7
11/02/94,18:50:00,49,14,49,45,0,0,0,64,95,0,7,12,7
11/02/94,18:55:00,47,39,43,31,0,0,0,64,95,0,7,10,7
11/02/94,19:00:00,34,45,45,49,0,0,0,64,95,0,7,8,7
11/02/94,19:05:00,56,27,56,32,0,0,0,64,95,0,7,7,7
11/02/94,19:10:00,57,31,45,33,0,0,0,64,95,0,9,13,6
11/02/94,19:15:00,52,21,39,39,0,0,0,64,95,0,16,18,6
11/02/94,19:20:00,49,29,40,47,0,0,0,63,95,0,13,13,6
11/02/94,19:25:00,51,44,35,38,0,0,0,62,95,0,11,10,6
11/02/94,19:30:00,67,24,33,36,0,0,0,62,95,0,10,9,6
11/02/94,19:35:00,59,23,62,29,0,0,0,62,95,0,9,8,6
11/02/94,19:40:00,48,19,48,42,0,0,0,62,95,0,8,8,6
11/02/94,19:45:00,53,22,39,49,0,0,0,62,95,0,7,18,7
11/02/94,19:50:00,57,14,48,47,0,0,0,62,86,0,7,16,7
11/02/94,19:55:00,34,33,53,31,0,0,0,62,86,0,7,12,7
11/02/94,20:00:00,60,27,35,41,0,0,0,63,95,0,7,10,7
11/02/94,20:05:00,61,17,34,40,0,0,0,63,95,0,6,8,7
11/02/94,20:10:00,53,15,40,40,0,0,0,63,95,0,6,7,6
11/02/94,20:15:00,35,21,46,39,0,0,0,63,95,0,7,7,6
11/02/94,20:20:00,44,22,45,41,0,0,0,63,95,0,7,14,7
11/02/94,20:25:00,57,33,36,40,0,0,0,63,95,0,7,17,6
11/02/94,20:30:00,57,17,31,45,0,0,0,63,95,0,7,12,6
11/02/94,20:35:00,35,24,37,36,0,0,0,63,95,0,6,10,6
11/02/94,20:40:00,66,45,42,44,0,0,0,60,95,0,6,8,6
11/02/94,20:45:00,48,24,54,30,0,0,0,60,95,0,12,7,6
11/02/94,20:50:00,52,18,52,38,0,0,0,60,95,0,15,6,7
11/02/94,20:55:00,38,19,36,53,0,0,0,60,95,0,13,6,7
11/02/94,21:00:00,41,48,30,38,0,0,0,60,117,0,10,14,7
11/02/94,21:05:00,52,26,39,45,0,0,0,60,95,0,9,18,6
11/02/94,21:10:00,49,17,40,52,0,0,0,60,95,0,8,13,6
11/02/94,21:15:00,39,26,52,34,0,0,0,60,95,0,8,10,6
11/02/94,21:20:00,53,34,41,41,0,0,0,61,95,0,7,8,6
11/02/94,21:25:00,40,23,51,43,0,0,0,61,86,0,7,7,6
11/02/94,21:30:00,45,36,38,39,0,0,0,61,103,0,7,6,6
11/02/94,21:35:00,41,30,34,36,0,0,0,61,86,0,7,8,6
11/02/94,21:40:00,38,23,36,32,0,0,0,61,86,0,7,18,6
11/02/94,21:45:00,53,30,42,51,0,0,0,61,86,0,7,14,6
11/02/94,21:50:00,44,18,34,31,0,0,0,62,86,0,7,11,6
11/02/94,21:55:00,51,38,31,43,0,0,0,62,86,0,7,9,7
11/02/94,22:00:00,51,41,44,36,0,0,0,62,86,0,7,8,7
11/02/94,22:05:00,54,26,59,33,0,0,0,62,86,0,7,7,7
11/02/94,22:10:00,51,26,37,26,0,0,0,62,86,0,7,7,7
11/02/94,22:15:00,47,26,41,42,0,0,0,62,86,0,7,6,6
11/02/94,22:20:00,49,12,58,43,0,0,0,62,86,0,7,6,7
11/02/94,22:25:00,53,30,45,35,0,0,0,63,86,0,7,10,6
11/02/94,22:30:00,59,11,35,45,0,0,0,62,86,0,6,18,6
11/02/94,22:35:00,35,2,49,42,0,0,0,62,86,0,6,14,6
11/02/94,22:40:00,51,38,42,29,0,0,0,62,86,0,6,11,7
11/02/94,22:45:00,62,0,39,29,0,0,0,62,86,0,6,9,6
11/02/94,22:50:00,50,34,65,33,0,0,0,61,86,0,10,7,6
11/02/94,22:55:00,53,0,55,58,0,0,0,61,86,0,17,13,6
11/02/94,23:00:00,26,1,48,46,0,0,0,62,95,0,14,18,7
11/02/94,23:05:00,27,25,27,29,0,0,0,61,95,0,11,13,7
11/02/94,23:10:00,52,0,40,42,0,0,0,61,95,0,10,10,7
11/02/94,23:15:00,39,10,59,40,0,0,0,61,95,0,8,9,7
11/02/94,23:20:00,43,0,48,35,36,33,66,61,95,0,10,16,6
11/02/94,23:25:00,78,0,31,28,31,29,58,61,95,0,12,14,6
11/02/94,23:30:00,56,0,37,37,31,28,58,60,95,0,11,11,6
11/02/94,23:35:00,23,0,56,26,29,26,54,60,95,0,9,9,6
11/02/94,23:40:00,52,4,30,34,24,23,46,60,95,0,8,7,6
11/02/94,23:45:00,30,0,52,39,22,20,41,61,95,0,7,7,6
11/02/94,23:50:00,54,0,44,29,21,19,39,61,95,0,7,6,6
11/02/94,23:55:00,22,2,49,43,17,16,32,61,95,0,6,5,6
11/03/94,00:00:00,74,0,20,42,17,16,32,61,95,0,6,6,6
